Probability
0 0 0 0 0 0 0 0 0 0 0 3 3 0 0 0 3 3 6 3 6 6 6 3 3 3 6 10 10 6 6 6 13 13 13 6 0 0 3 6 3 3 3 10
0 0 0 0 0 0 0 0 0 0 3 3 6 0 3 3 0 0 0 3 6 3 3 3 3 3 3 3 3 6 3 3 6 6 0 0 0 3 3 6 3 0 3 3
0 0 0 0 0 0 0 0 0 0 3 3 3 6 0 0 0 0 0 0 3 3 6 3 3 3 3 3 3 3 3 3 3 3 0 0 0 0 3 0 0 0 3 3
0 0 0 0 0 0 0 0 0 6 3 3 0 0 0 0 0 0 0 0 0 3 3 3 3 3 3 3 3 3 3 3 3 3 3 3 0 3 3 6 6 6 3 3
0 0 0 0 0 0 0 0 0 0 0 0 0 0 0 0 0 0 0 0 0 0 0 3 3 3 3 3 3 3 3 3 3 3 3 0 3 3 3 6 6 6 3 0
0 0 0 0 0 0 0 0 0 0 0 0 0 0 0 0 0 0 0 0 0 0 0 0 0 3 3 3 3 3 0 0 0 0 0 0 3 3 3 6 6 3 0 0
0 0 0 0 0 0 0 0 0 0 0 0 0 3 3 6 0 0 3 0 0 0 0 0 0 3 0 0 0 0 0 0 0 0 0 0 3 3 6 6 3 0 0 0
0 0 0 0 0 0 0 0 0 0 6 0 6 6 3 3 3 3 0 0 0 0 0 0 0 3 0 0 0 0 0 0 0 0 0 0 3 3 3 3 3 3 3 3
0 0 3 0 0 0 0 0 0 3 3 3 0 3 0 0 0 0 0 0 0 0 0 0 0 3 0 0 0 0 0 0 0 0 0 0 0 3 3 10 3 0 0 3
0 0 0 0 0 0 0 0 0 0 0 0 0 0 0 0 0 0 3 0 0 0 0 0 0 0 0 0 0 0 0 0 0 0 0 3 3 3 6 3 0 3 0 0
0 0 0 0 0 0 0 0 0 0 0 0 0 0 0 0 0 3 0 0 0 0 0 0 0 3 0 0 0 0 3 6 0 0 3 0 0 3 3 0 3 0 0 0
0 0 0 0 0 0 3 0 0 0 0 0 0 0 0 0 0 3 0 3 3 0 0 0 0 3 3 3 0 0 0 3 0 0 3 0 0 0 0 0 0 0 0 0
0 0 0 0 0 0 0 0 0 0 0 0 0 0 0 0 3 3 0 3 0 0 0 0 0 0 0 3 3 0 6 6 0 0 0 0 0 0 0 0 0 0 0 0
0 0 0 0 0 0 0 0 0 0 0 0 0 0 0 0 3 0 0 0 0 0 0 0 0 0 0 0 3 3 0 0 0 0 0 0 0 0 0 0 0 0 0 0
0 0 0 0 0 0 3 0 0 0 0 0 0 0 0 0 0 0 0 0 0 0 0 0 0 0 0 0 0 0 0 0 0 0 0 0 0 0 0 0 0 0 0 0
0 0 0 0 0 0 0 0 0 0 0 0 0 0 0 0 0 0 0 0 0 0 0 0 0 0 0 0 0 0 0 0 0 0 0 0 0 0 0 0 0 0 0 0
0 0 0 0 0 0 0 0 0 0 0 0 0 0 0 0 0 0 0 0 0 0 0 0 0 0 0 0 0 0 0 0 0 0 0 0 0 0 0 0 0 0 0 0
0 0 0 0 0 0 0 0 0 0 0 0 0 0 0 0 0 0 0 0 3 0 0 0 0 0 0 0 0 0 0 0 0 0 0 0 0 0 0 0 0 0 0 0
0 0 0 0 0 0 0 0 0 0 0 0 0 0 3 3 0 3 0 0 0 0 0 0 0 0 0 0 0 0 0 0 0 0 0 0 0 0 0 0 0 0 0 0
0 0 0 0 0 0 0 0 0 0 0 0 0 3 3 3 0 0 0 0 0 0 0 0 0 0 0 0 0 0 0 0 0 0 0 0 0 0 0 0 0 0 0 0
0 0 0 0 0 0 0 0 0 0 0 3 3 3 3 3 0 0 0 0 0 0 0 0 0 0 0 0 0 0 0 0 0 0 0 0 0 0 0 0 0 0 0 0
0 0 0 0 0 0 0 0 0 0 3 3 3 3 3 0 0 0 0 0 0 0 0 0 0 0 0 0 0 0 0 0 0 0 0 0 0 0 0 0 0 0 0 0
0 0 0 0 0 0 0 0 0 0 0 0 0 0 0 0 0 0 0 0 0 0 0 0 0 0 0 0 0 0 0 0 0 0 0 0 0 0 0 0 0 0 0 0
0 0 0 0 0 0 0 0 0 0 0 0 0 0 0 0 0 0 0 0 0 0 0 0 0 0 0 0 0 0 0 0 0 0 0 0 0 0 0 0 0 0 0 0
0 0 0 0 0 0 0 0 0 0 0 0 0 0 0 0 0 0 0 0 0 0 0 0 0 0 0 0 0 0 0 0 0 0 0 0 0 0 0 0 0 0 0 0
0 0 0 0 0 0 0 0 0 0 3 0 0 0 0 0 0 0 0 0 0 0 0 0 0 0 0 0 0 0 0 0 0 0 0 0 0 0 0 0 0 0 0 0
0 0 0 0 0 0 0 0 0 0 0 0 0 0 0 0 0 0 0 0 0 0 0 0 0 0 0 0 0 0 0 0 0 0 0 0 0 0 0 0 0 0 0 0
Height
5829 5827 5825 5823 5821 5819 5816 5814 5812 5808 5805 5801 5797 5794 5790 5787 5783 5780 5777 5773 5770 5767 5764 5760 5757 5753 5750 5747 5744 5741 5739 5736 5734 5732 5730 5728 5726 5724 5721 5718 5715 5713 5709 5707
5826 5824 5822 5820 5817 5815 5813 5810 5808 5805 5802 5798 5795 5791 5788 5784 5781 5777 5774 5771 5768 5765 5761 5758 5754 5751 5748 5745 5742 5740 5737 5735 5732 5730 5728 5726 5724 5721 5719 5716 5713 5710 5707 5703
5823 5820 5818 5816 5814 5812 5809 5807 5805 5802 5799 5795 5792 5788 5785 5781 5778 5775 5772 5769 5765 5762 5759 5755 5752 5749 5746 5743 5741 5738 5736 5734 5731 5729 5726 5724 5721 5719 5716 5713 5710 5707 5704 5700
5819 5817 5815 5815 5811 5808 5806 5804 5801 5798 5795 5791 5788 5785 5782 5778 5775 5772 5769 5766 5763 5760 5756 5753 5750 5747 5745 5742 5740 5737 5735 5733 5730 5728 5725 5723 5720 5717 5714 5711 5708 5704 5701 5697
5815 5813 5811 5810 5807 5805 5803 5800 5797 5795 5791 5788 5784 5782 5779 5775 5772 5769 5766 5764 5761 5758 5754 5751 5748 5746 5743 5741 5738 5736 5734 5731 5729 5726 5724 5721 5718 5715 5712 5709 5705 5702 5698 5694
5811 5809 5808 5807 5804 5801 5800 5796 5794 5791 5788 5784 5781 5779 5776 5773 5769 5767 5764 5761 5758 5756 5752 5749 5747 5744 5742 5739 5737 5735 5732 5730 5727 5725 5722 5720 5717 5713 5710 5706 5703 5699 5695 5691
5807 5805 5803 5801 5799 5798 5797 5794 5790 5787 5784 5781 5778 5775 5773 5770 5767 5764 5762 5759 5756 5754 5751 5748 5746 5743 5741 5738 5736 5733 5731 5729 5726 5724 5721 5718 5715 5712 5708 5704 5701 5697 5693 5688
5802 5801 5800 5796 5794 5793 5792 5788 5786 5783 5780 5778 5775 5772 5770 5767 5764 5761 5759 5757 5754 5752 5749 5747 5744 5742 5739 5737 5735 5732 5730 5728 5725 5722 5719 5716 5713 5710 5706 5702 5698 5694 5690 5686
5798 5797 5793 5791 5789 5788 5786 5784 5782 5779 5777 5774 5772 5769 5767 5764 5761 5759 5757 5755 5753 5750 5748 5746 5743 5741 5738 5736 5733 5731 5729 5726 5724 5721 5718 5714 5711 5707 5703 5699 5695 5691 5687 5683
5792 5790 5788 5786 5784 5782 5780 5779 5777 5775 5773 5771 5768 5766 5763 5761 5759 5757 5755 5753 5751 5748 5746 5744 5742 5739 5737 5735 5732 5730 5727 5724 5722 5719 5716 5712 5709 5705 5701 5697 5693 5689 5685 5680
5786 5784 5782 5781 5778 5777 5775 5773 5772 5770 5768 5767 5765 5762 5760 5758 5756 5755 5753 5751 5749 5747 5745 5743 5740 5738 5735 5733 5730 5728 5725 5723 5720 5717 5714 5710 5707 5703 5699 5695 5691 5687 5682 5677
5779 5778 5776 5774 5772 5770 5769 5768 5766 5765 5764 5762 5760 5758 5756 5755 5753 5752 5750 5748 5746 5745 5743 5741 5738 5736 5733 5731 5728 5726 5723 5721 5718 5715 5711 5708 5705 5701 5697 5693 5689 5685 5680 5675
5772 5770 5769 5767 5765 5764 5763 5762 5761 5759 5758 5757 5755 5754 5752 5751 5749 5748 5747 5745 5743 5742 5740 5738 5736 5734 5731 5729 5726 5724 5721 5719 5716 5713 5710 5706 5703 5700 5696 5692 5687 5683 5678 5673
5764 5763 5761 5760 5759 5757 5756 5755 5754 5753 5752 5751 5750 5749 5747 5746 5745 5744 5743 5742 5740 5739 5737 5735 5733 5731 5729 5727 5724 5722 5719 5717 5714 5711 5708 5705 5702 5698 5694 5690 5686 5681 5677 5672
5756 5755 5754 5753 5751 5750 5749 5749 5748 5747 5746 5745 5744 5743 5742 5741 5741 5740 5739 5738 5737 5735 5734 5732 5730 5728 5726 5724 5721 5719 5717 5715 5712 5709 5707 5703 5700 5697 5693 5689 5684 5680 5675 5670
5748 5747 5746 5745 5744 5743 5743 5742 5741 5741 5740 5739 5739 5738 5737 5737 5736 5736 5735 5734 5733 5732 5730 5729 5727 5726 5724 5721 5719 5717 5714 5712 5710 5708 5705 5702 5698 5695 5691 5687 5683 5679 5674 5669
5740 5739 5738 5738 5737 5736 5736 5735 5735 5734 5734 5733 5733 5732 5732 5731 5731 5730 5730 5729 5728 5727 5726 5725 5724 5722 5721 5718 5716 5714 5712 5710 5708 5705 5703 5700 5697 5694 5690 5686 5682 5678 5673 5668
5731 5730 5730 5730 5729 5729 5728 5728 5728 5728 5727 5727 5727 5726 5726 5726 5725 5725 5725 5724 5724 5723 5722 5721 5720 5719 5717 5716 5714 5712 5710 5708 5706 5703 5701 5699 5695 5692 5689 5685 5681 5677 5672 5667
5722 5722 5722 5722 5721 5721 5721 5721 5721 5720 5720 5720 5720 5720 5720 5720 5720 5720 5720 5719 5719 5718 5718 5717 5716 5715 5714 5712 5711 5709 5708 5705 5703 5701 5699 5697 5694 5691 5687 5684 5680 5675 5671 5666
5714 5714 5714 5713 5713 5713 5713 5713 5713 5713 5713 5713 5713 5713 5713 5713 5713 5714 5714 5714 5714 5713 5713 5712 5712 5711 5710 5709 5708 5707 5705 5703 5701 5699 5697 5695 5692 5689 5686 5682 5678 5674 5670 5665
5705 5705 5705 5705 5705 5705 5705 5705 5706 5706 5706 5706 5706 5706 5706 5707 5707 5707 5708 5708 5709 5708 5708 5708 5707 5707 5706 5705 5704 5703 5702 5700 5698 5697 5695 5693 5690 5687 5684 5681 5677 5673 5668 5664
5696 5696 5696 5697 5697 5697 5698 5698 5698 5698 5698 5699 5699 5699 5700 5700 5700 5701 5702 5702 5703 5703 5703 5703 5703 5702 5702 5701 5700 5700 5698 5697 5695 5694 5692 5690 5688 5685 5682 5679 5675 5671 5667 5662
5686 5687 5687 5688 5688 5689 5689 5690 5690 5690 5691 5691 5692 5692 5693 5693 5694 5695 5696 5696 5696 5697 5697 5698 5698 5698 5697 5697 5696 5696 5695 5694 5692 5691 5689 5687 5685 5682 5680 5676 5673 5669 5665 5660
5677 5677 5678 5679 5679 5680 5681 5682 5682 5682 5683 5684 5684 5685 5685 5686 5687 5688 5689 5690 5690 5691 5691 5692 5692 5692 5692 5692 5692 5691 5691 5690 5688 5687 5685 5684 5682 5679 5677 5674 5670 5667 5663 5658
5667 5668 5668 5669 5670 5671 5672 5673 5674 5674 5675 5676 5677 5677 5678 5679 5680 5681 5682 5683 5683 5684 5685 5686 5686 5686 5686 5687 5687 5686 5686 5685 5684 5683 5682 5680 5678 5676 5674 5671 5668 5664 5660 5656
5658 5658 5659 5660 5661 5662 5663 5664 5665 5666 5667 5668 5669 5670 5671 5672 5673 5674 5675 5676 5677 5678 5678 5679 5680 5680 5681 5681 5681 5681 5681 5681 5680 5679 5678 5677 5675 5673 5670 5668 5665 5661 5658 5654
5647 5649 5650 5651 5652 5653 5654 5655 5656 5657 5659 5660 5661 5662 5664 5665 5666 5667 5668 5669 5670 5671 5672 5673 5674 5675 5675 5676 5676 5676 5676 5676 5676 5675 5674 5672 5671 5669 5667 5664 5661 5658 5655 5651
Wind_Speed
13 13 13 14 15 15 16 15 16 16 17 18 19 19 19 19 19 18 18 18 18 17 17 18 18 17 17 17 15 14 13 13 12 12 12 13 14 14 15 16 16 16 16 16
14 14 14 15 15 15 16 16 16 17 18 19 20 19 19 19 19 18 17 17 18 17 17 17 17 16 16 15 14 13 13 12 12 12 13 13 14 14 15 15 16 16 17 17
15 15 16 16 16 15 15 16 17 18 19 20 19 19 19 19 19 18 18 18 18 17 16 17 16 16 15 14 12 12 12 12 12 13 13 13 13 14 15 15 16 17 17 18
15 15 15 16 15 15 16 17 18 19 19 19 19 19 19 19 19 18 18 18 17 17 17 17 16 15 14 13 12 11 12 12 12 12 13 14 15 15 15 16 17 17 18 19
16 16 17 16 16 16 17 18 18 19 19 20 19 20 19 19 19 18 17 17 17 17 17 16 15 14 13 13 12 12 12 13 12 12 13 14 15 15 15 16 17 17 19 19
16 17 18 17 17 17 17 18 19 19 19 19 19 19 18 18 18 17 16 16 16 17 17 16 14 13 13 13 13 12 12 12 12 12 13 14 15 15 16 16 17 18 19 19
17 17 18 18 18 17 17 18 19 19 19 18 18 18 18 18 18 17 16 16 16 16 15 14 13 13 13 13 13 12 11 11 11 12 13 14 15 16 16 17 17 18 19 19
18 19 19 19 18 18 18 18 19 19 18 18 18 18 18 18 17 16 15 15 15 15 14 13 12 13 13 12 12 12 11 11 12 13 14 14 15 16 17 18 18 18 19 19
20 20 21 20 20 20 20 20 20 19 18 18 18 18 18 17 16 15 14 15 14 13 12 12 12 13 12 12 12 12 12 12 13 14 15 15 16 17 18 18 18 18 19 19
21 21 21 21 21 21 21 20 20 19 19 18 18 18 17 16 15 14 14 13 13 12 11 11 12 12 11 12 12 12 12 12 13 14 14 15 16 17 17 18 18 18 19 20
22 22 22 22 22 21 21 20 20 19 19 18 18 18 16 15 14 14 14 13 12 11 11 12 13 12 11 12 12 12 12 12 13 13 14 15 16 16 17 18 18 19 19 20
23 24 24 23 22 22 21 20 20 19 19 18 18 17 16 15 14 14 13 13 12 12 12 13 13 12 12 12 12 12 12 12 13 14 14 14 15 16 17 17 18 19 20 21
25 25 25 24 23 22 21 21 21 20 19 19 18 17 16 15 14 13 13 13 12 12 12 13 13 12 12 12 12 11 11 12 13 14 14 14 15 16 16 17 18 19 20 21
27 26 25 24 24 23 22 22 21 20 20 19 18 17 16 15 14 13 13 13 12 12 13 13 12 12 12 13 12 11 11 12 12 13 14 14 15 15 16 17 18 19 20 21
28 27 26 25 24 23 22 22 21 20 19 18 18 17 16 15 14 13 13 13 13 13 13 13 12 12 12 13 12 12 11 11 12 13 13 14 14 15 16 18 19 20 21 22
27 27 26 25 25 23 22 22 21 20 19 19 18 17 16 16 15 14 14 13 13 12 12 13 12 12 12 13 12 11 11 11 11 12 13 14 14 15 16 18 19 20 22 22
27 27 26 26 25 23 22 22 21 21 20 19 18 17 17 16 15 14 14 14 13 13 13 12 11 12 12 12 12 11 11 11 11 11 12 13 14 15 16 17 19 20 22 23
27 26 25 25 24 24 23 23 22 21 20 20 19 18 17 17 16 15 14 14 14 14 13 12 11 11 11 11 11 10 11 11 10 11 11 12 13 15 16 17 18 20 21 23
27 26 25 25 24 24 23 23 23 22 21 20 20 19 18 17 17 16 15 14 14 14 13 12 11 11 11 11 10 10 10 10 10 11 11 12 14 14 15 16 18 19 21 23
27 27 26 26 25 24 23 23 22 22 21 21 20 19 18 17 17 16 15 15 15 14 13 12 11 11 11 11 10 10 10 10 10 11 11 12 13 14 15 16 18 19 20 22
27 27 26 26 25 24 23 22 22 22 22 21 20 19 19 18 18 17 16 15 15 14 13 13 12 12 12 11 11 11 10 10 10 10 11 12 13 14 16 16 17 18 20 22
27 26 26 26 25 24 23 23 23 22 21 21 20 20 19 19 18 18 17 16 16 15 14 14 14 13 12 11 11 11 10 10 10 11 11 12 13 14 15 16 17 18 20 22
27 26 26 26 26 25 24 23 23 23 22 21 20 20 19 19 19 19 18 17 16 16 16 15 14 14 13 12 12 12 11 11 11 11 11 12 13 14 15 15 16 18 20 21
28 27 27 26 26 25 24 24 23 23 22 21 21 20 20 20 20 19 18 18 17 17 16 16 15 15 14 13 13 12 12 11 11 11 11 12 13 14 15 15 16 18 20 21
27 27 27 26 25 25 25 25 24 23 22 22 21 20 20 20 19 19 19 18 18 17 17 16 16 15 15 14 14 13 12 12 11 11 11 12 13 14 14 16 17 18 19 20
28 27 27 26 26 25 25 25 24 23 23 22 22 21 21 20 20 19 19 18 18 17 17 17 17 17 16 15 15 14 13 12 11 11 11 12 12 13 14 16 17 17 18 20
28 28 27 27 26 26 26 25 25 24 24 23 22 22 22 21 21 20 20 19 19 18 18 17 17 17 16 16 15 13 12 12 12 12 12 12 13 13 14 15 16 17 18 20
Wind_Direction
312 314 314 315 315 318 321 320 319 321 321 324 328 328 328 327 328 327 327 330 330 327 328 329 330 330 328 328 325 325 326 327 326 327 324 322 324 326 330 329 327 324 322 319
310 311 311 312 313 314 316 316 318 320 321 323 327 328 327 325 327 327 328 329 329 328 329 330 331 333 332 330 326 326 329 331 329 331 330 328 330 332 333 332 331 329 328 325
310 310 310 310 311 311 313 315 317 317 319 321 323 325 326 326 326 327 327 329 330 332 332 333 333 333 334 335 335 332 332 333 333 334 335 336 338 337 335 333 332 331 332 330
308 308 308 310 311 311 313 316 318 317 318 320 322 324 326 327 326 327 328 329 330 332 333 332 332 333 336 337 339 336 336 338 338 339 339 339 339 337 336 336 333 330 333 332
306 305 305 308 310 310 312 314 316 319 319 320 319 322 323 325 326 323 327 327 328 331 334 335 335 335 335 337 338 337 338 340 340 340 340 341 341 341 341 338 334 332 332 333
306 302 302 306 308 310 311 312 316 318 318 320 320 321 322 324 325 324 323 326 329 332 334 336 337 339 337 337 339 339 339 341 342 342 342 342 342 343 342 339 337 336 336 336
305 302 300 303 304 307 310 312 315 317 318 320 320 320 322 323 322 322 324 327 330 332 334 335 336 337 339 341 342 342 343 345 345 342 343 343 343 344 342 341 340 339 339 338
302 302 301 302 302 303 307 310 313 314 316 318 319 319 320 321 322 321 323 327 329 332 335 337 338 340 340 341 342 341 342 342 341 340 340 340 342 342 343 341 340 340 341 341
298 298 300 301 301 301 302 305 309 311 312 316 317 318 320 322 322 322 324 326 328 330 335 339 340 342 343 343 342 339 338 338 338 338 341 344 343 343 343 344 344 344 345 344
294 296 298 300 300 299 299 300 304 307 309 312 314 315 318 319 319 319 324 325 328 329 333 336 337 338 340 341 342 342 340 339 339 341 345 346 345 346 347 347 347 347 346 345
292 293 295 299 300 297 295 295 299 303 304 306 310 310 312 315 315 317 322 325 326 328 332 335 336 335 336 338 340 340 340 341 343 345 346 346 348 349 349 349 349 349 349 348
290 292 293 296 297 295 292 291 294 297 298 301 304 305 306 308 308 310 313 317 319 320 324 329 332 333 335 337 338 339 338 341 345 346 346 348 350 349 350 350 351 351 351 350
289 290 291 293 293 293 291 289 288 291 294 296 299 301 302 301 301 303 307 311 313 317 319 323 327 330 332 335 338 340 340 343 346 347 348 350 351 351 352 354 354 354 354 354
287 287 288 290 290 290 289 288 287 288 292 293 295 297 297 297 296 299 303 308 310 313 316 320 323 326 329 331 334 336 338 340 344 345 348 350 351 353 355 355 356 356 356 357
285 284 285 286 287 287 287 287 288 288 289 291 293 294 293 291 291 294 297 300 303 305 310 316 319 322 325 328 331 332 334 337 340 343 346 348 351 353 354 354 355 356 356 356
283 282 282 283 283 283 285 286 286 287 287 287 288 290 289 285 285 289 292 293 296 298 304 310 312 316 321 324 328 331 334 335 336 339 342 346 349 351 352 354 355 355 355 355
280 280 281 283 281 281 282 283 284 285 285 283 285 286 287 282 280 282 285 288 292 295 300 304 305 309 315 319 322 326 332 334 333 334 339 344 347 350 352 353 354 355 356 356
278 279 279 280 280 280 279 281 281 281 281 280 280 282 283 281 278 279 280 284 288 292 296 295 298 303 307 311 315 322 329 331 330 333 338 342 345 347 350 353 355 356 357 357
276 277 277 278 279 279 278 279 279 278 278 277 278 277 278 277 275 273 274 278 283 287 287 286 292 298 302 304 308 315 323 328 329 331 334 338 341 346 349 352 355 356 356 357
275 275 275 276 277 277 277 277 276 276 275 275 276 275 274 272 271 270 269 272 277 280 279 278 284 292 296 298 300 306 314 320 322 325 331 334 339 344 347 349 351 353 355 357
273 274 273 273 274 274 274 272 271 272 273 273 273 273 271 270 269 268 266 270 273 274 273 273 280 286 288 291 294 298 304 312 314 316 322 328 334 339 343 344 346 349 352 354
270 271 271 271 271 272 271 270 271 271 271 271 270 268 268 267 266 264 264 267 268 267 268 271 276 279 280 283 288 295 299 303 307 310 314 322 329 334 337 339 342 345 349 352
267 267 267 268 269 270 270 269 270 270 269 267 266 265 264 264 263 262 264 264 264 263 265 268 271 273 274 276 281 288 293 296 300 304 310 317 324 329 332 336 338 342 346 349
265 265 265 266 267 267 266 266 267 268 267 265 263 262 262 261 260 261 261 261 261 260 261 264 266 266 268 271 277 283 286 289 293 299 305 312 318 323 326 331 335 339 342 345
265 265 265 265 265 264 265 265 265 265 264 263 262 261 260 258 257 257 257 258 256 256 257 259 261 261 263 267 273 277 279 283 287 294 300 305 312 317 322 328 332 336 339 342
263 264 262 262 262 262 262 261 261 261 260 260 260 259 256 254 255 254 253 252 252 254 256 257 258 257 258 261 266 272 276 279 284 290 295 301 307 314 320 326 330 334 338 340
260 260 260 259 260 260 259 258 257 256 255 256 255 254 253 253 251 251 251 249 251 254 256 256 255 255 254 256 260 266 271 275 279 286 292 297 303 309 314 321 328 334 338 340